Gainesville, FL

3:48 PM EST on December 11, 2019 (GMT -0500)
Gainesville Regional

Weather History for KGNV - October, 2019

Change the Weather History Date:

Thursday, October 17, 2019

  Actual Average Record
Temperature  
Mean Temperature 67 °F 71 °F  
Max Temperature 75 °F 81 °F 93 °F (1925)
Min Temperature 58 °F 60 °F 39 °F (1943)
Degree Days  
Heating Degree Days 0 1  
Month to date heating degree days 0 5  
Since 1 July heating degree days 0 5  
Cooling Degree Days 2 6  
Month to date cooling degree days 199 142  
Year to date cooling degree days 3215 2482  
Growing Degree Days 16 (Base 50)    
Moisture  
Dew Point 55 °F    
Average Humidity 64    
Maximum Humidity 90    
Minimum Humidity 38    
Precipitation  
Precipitation 0.00 in 0.09 in 1.29 in (1956)
Month to date precipitation 1.89 1.88  
Year to date precipitation 40.13 41.87  
Snow  
Snow 0.00 in 0.00 in 0.00 in ()
Month to date snowfall 0.0 0.0  
Since 1 July snowfall 0.0 0.0  
Since 1 September snowfall 0.0 0.0  
Snow Depth 0.00 in    
Sea Level Pressure  
Sea Level Pressure 29.95 in    
Wind  
Wind Speed 5 mph (NW)    
Max Wind Speed 10 mph    
Max Gust Speed 15 mph    
Visibility 10 miles    
Events      
T = Trace of Precipitation, MM = Missing Value Source: NWS Daily Summary

Daily Weather History Graph

Daily Weather History Graph

Search for Another Location

Airport or City:

Astronomy

Oct. 17, 2019 Rise Set
Actual Time 7:31 AM EDT 6:56 PM EDT
Civil Twilight 7:07 AM EDT 7:20 PM EDT
Nautical Twilight 6:40 AM EDT 7:48 PM EDT
Astronomical Twilight 6:12 AM EDT 8:16 PM EDT
Moon 9:41 PM EDT (10/17) 10:49 AM EDT (10/17)
Length of Visible Light 12h 12m
Length of Day
11h 24m
Waning Gibbous, 87% of the Moon is Illuminated
Oct 17
Waning Gibbous
Oct 21
Last Quarter
Oct 27
New
Nov 4
First Quarter
Nov 12
Full

Hourly Weather History & Observations

Time (EDT) Temp. Dew Point Humidity Pressure Visibility Wind Dir Wind Speed Gust Speed Precip Events Conditions
12:53 AM 71.1 °F 68.0 °F 90% 29.93 in 10.0 mi WNW 6.9 mph - N/A   Clear
1:53 AM 70.0 °F 66.9 °F 90% 29.92 in 10.0 mi West 5.8 mph - N/A   Clear
2:53 AM 70.0 °F 66.0 °F 87% 29.92 in 10.0 mi NW 6.9 mph - N/A   Clear
3:53 AM 68.0 °F 64.9 °F 90% 29.91 in 10.0 mi NNW 5.8 mph - N/A   Clear
4:53 AM 66.0 °F 63.0 °F 90% 29.92 in 10.0 mi NNW 6.9 mph - N/A   Clear
5:53 AM 64.9 °F 59.0 °F 81% 29.93 in 10.0 mi North 10.4 mph - N/A   Clear
6:53 AM 62.1 °F 55.9 °F 80% 29.95 in 10.0 mi North 3.5 mph - N/A   Clear
7:53 AM 61.0 °F 55.0 °F 81% 29.97 in 10.0 mi North - - N/A   Clear
8:53 AM 63.0 °F 53.1 °F 70% 29.99 in 10.0 mi North 3.5 mph - N/A   Clear
9:53 AM 64.0 °F 50.0 °F 60% 30.00 in 10.0 mi NNE 6.9 mph - N/A   Clear
10:53 AM 66.9 °F 48.9 °F 52% 30.01 in 10.0 mi North 4.6 mph - N/A   Clear
11:53 AM 69.1 °F 50.0 °F 51% 30.00 in 10.0 mi Variable 5.8 mph - N/A   Clear
12:53 PM 72.0 °F 48.9 °F 44% 29.98 in 10.0 mi NNW 5.8 mph - N/A   Clear
1:53 PM 72.0 °F 48.0 °F 43% 29.96 in 10.0 mi Variable 3.5 mph - N/A   Clear
2:53 PM 73.9 °F 48.9 °F 41% 29.94 in 10.0 mi WNW 5.8 mph - N/A   Clear
3:53 PM 73.9 °F 46.9 °F 38% 29.94 in 10.0 mi WSW 6.9 mph - N/A   Clear
4:53 PM 73.9 °F 46.9 °F 38% 29.93 in 10.0 mi West 5.8 mph - N/A   Clear
5:53 PM 71.1 °F 51.1 °F 49% 29.93 in 10.0 mi NNW 3.5 mph - N/A   Clear
6:53 PM 68.0 °F 55.0 °F 63% 29.92 in 10.0 mi Calm Calm - N/A   Clear
7:53 PM 64.0 °F 55.9 °F 75% 29.93 in 10.0 mi Calm Calm - N/A   Clear
8:53 PM 62.1 °F 55.0 °F 78% 29.95 in 10.0 mi WSW 3.5 mph - N/A   Clear
9:53 PM 60.1 °F 54.0 °F 80% 29.97 in 10.0 mi Calm Calm - N/A   Clear
10:53 PM 62.1 °F 53.1 °F 72% 29.98 in 10.0 mi NNW 6.9 mph - N/A   Clear
11:53 PM 62.1 °F 52.0 °F 70% 29.98 in 10.0 mi West 3.5 mph - N/A   Clear